Location: Gowrie
(35.4119°S, 149.1090°E)
Time: 00:37:06
(UTC+10:00)

ISS - Visible Passes

Search period start: 29 May 2017 00:00
Search period end: 08 June 2017 00:00
Orbit: 402 x 408 km, 51.6° (Epoch: 28 May)

Date Brightness Start Highest point End Pass type
(mag) Time Alt. Az. Time Alt. Az. Time Alt. Az.
29 May -2.1 06:17:28 10° NNW 06:20:32 37° NE 06:23:38 10° ESE visible
30 May -0.9 05:26:19 10° N 05:28:39 18° NE 05:30:58 10° E visible
31 May -3.9 06:09:32 10° NW 06:12:49 73° SW 06:16:08 10° SE visible
01 Jun -3.0 05:19:53 37° N 05:20:48 50° NE 05:24:01 10° ESE visible
02 Jun -0.5 04:31:06 13° E 04:31:06 13° E 04:31:33 10° ESE visible
02 Jun -2.8 06:03:50 21° WSW 06:05:14 28° SW 06:08:11 10° SSE visible
03 Jun -2.1 05:14:41 26° SSE 05:14:41 26° SSE 05:16:20 10° SE visible
04 Jun -1.8 05:57:57 15° SSW 05:57:57 15° SSW 05:59:47 10° S visible
